Retour au catalogue

PERSAT01

ActifScienceSSO
NORAD 66652·PAYLOAD·🇰🇷 South Korea
Ce nom de satellite n'a pas encore été confirmé par des sources officielles.

Lancé Nov 26, 2025 depuis Naro Space Center

Loading…

Prochains Passages (prochaines 24 heures)

TLE

FraisSource: Space-Track

Époque: Sep 14, 2026, 02:45 UTC

1 66652U 25274C   26257.11465824  .00001828  00000-0  17937-3 0  9997
2 66652  97.7475 184.9242 0013133  65.6291 294.6298 14.93384358 43483

Suivez PERSAT01 en temps réel avec AllMySat

Download on the App Store